Voltar ao catálogo

STARLINK-3253

AtivoComunicaçõesVLEO
NORAD 51136·PAYLOAD·🇺🇸 United States

Lançado Jan 19, 2022 de Cape Canaveral Space Force Station

Loading…

Próximas Passagens (próximas 24 horas)

TLE

AtualizadoSource: CelesTrak SupGP

Época: Sep 15, 2026, 02:40 UTC

1 51136C 22005AJ  26258.11159722  .00037421  00000+0  11058-2 0  2587
2 51136  53.1569 154.5712 0001243  87.5090  53.8359 15.34366877    15

Acompanhe STARLINK-3253 em tempo real com AllMySat

Download on the App Store